DW9408 Weather Reports


Display with metric or nautical units.
time (UTC)temp
F
wind
direction
speed
MPH
gust
MPH
rain 1hr
in
rain 24hr
in
rain mn
in
humidity
%
barometer
mb
20260502170156 61 355 0.0 3.0 0.00 0.00 0.00 69 1012.4
20260502164153 60 17 0.0 3.0 0.00 0.00 0.00 70 1012.9
20260502163653 59 11 1.0 6.0 0.00 0.00 0.00 66 1013.0
20260502163425 59 346 3.0 8.0 0.00 0.00 0.00 66 1013.1
20260502162655 60 327 2.0 8.0 0.00 0.00 0.00 70 1013.1
20260502162154 60 333 2.0 8.0 0.00 0.00 0.00 67 1013.1
20260502161654 60 34 1.0 8.0 0.00 0.00 0.00 69 1013.2
20260502161153 59 325 1.0 5.0 0.00 0.00 0.00 70 1013.2
20260502160655 59 347 1.0 6.0 0.00 0.00 0.00 75 1013.2
20260502160155 58 347 1.0 6.0 0.00 0.00 0.00 71 1013.3
20260502152128 57 5 1.0 5.0 0.00 0.00 0.00 74 1013.5
20260502151622 57 9 0.0 1.0 0.00 0.00 0.00 76 1013.5
20260502151116 57 9 0.0 4.0 0.00 0.00 0.00 74 1013.4
20260502150610 57 9 0.0 4.0 0.00 0.00 0.00 77 1013.3
20260502150104 57 9 0.0 3.0 0.00 0.00 0.00 76 1013.3
20260502130618 56 355 0.0 2.0 0.00 0.00 0.00 81 1012.8
20260502123815 55 355 0.0 0.0 0.00 0.00 0.00 88 1012.8
20260502123541 55 355 0.0 0.0 0.00 0.00 0.00 89 1012.7
20260502122804 55 355 0.0 0.0 0.00 0.00 0.00 90 1012.6
20260502122530 55 355 0.0 0.0 0.00 0.00 0.00 90 1012.9
20260502121752 55 355 0.0 0.0 0.00 0.00 0.00 88 1012.8
20260502121245 55 355 0.0 0.0 0.00 0.00 0.00 90 1012.8
20260502121012 55 355 0.0 0.0 0.00 0.00 0.00 90 1012.7
20260502120235 54 355 0.0 0.0 0.00 0.00 0.00 91 1012.5
20260502115727 54 355 0.0 0.0 0.00 0.00 0.00 91 1012.2
20260502115222 54 355 0.0 0.0 0.00 0.00 0.00 90 1012.3
20260502114716 54 355 0.0 3.0 0.00 0.00 0.00 91 1012.3
20260502113704 54 15 0.0 2.0 0.00 0.00 0.00 91 1011.9
20260502113158 54 22 0.0 0.0 0.00 0.00 0.00 94 1011.5
20260502112651 53 100 0.0 0.0 0.00 0.00 0.00 95 1011.1
20260502112146 53 100 0.0 0.0 0.00 0.00 0.00 96 1011.5
20260502111640 53 209 0.0 0.0 0.00 0.00 0.00 96 1011.5
20260502111405 53 209 0.0 0.0 0.00 0.00 0.00 97 1011.9
20260502110900 53 209 0.0 0.0 0.00 0.00 0.00 97 1012.1
20260502110352 53 209 0.0 0.0 0.00 0.00 0.00 97 1011.9
20260502105616 53 209 0.0 0.0 0.00 0.00 0.00 97 1011.7
20260502105109 53 209 0.0 0.0 0.00 0.00 0.00 97 1011.6
20260502104604 53 209 0.0 0.0 0.00 0.00 0.00 97 1011.5
20260502104058 53 209 0.0 0.0 0.00 0.00 0.00 97 1011.5
20260502103552 53 209 0.0 0.0 0.00 0.00 0.00 97 1011.4
20260502103052 53 209 0.0 0.0 0.00 0.00 0.00 97 1011.2
20260502102552 53 209 0.0 0.0 0.00 0.00 0.00 98 1011.2
20260502102050 53 209 0.0 0.0 0.00 0.00 0.00 98 1011.3
20260502101553 53 209 0.0 0.0 0.00 0.00 0.00 98 1011.2
20260502101047 53 209 0.0 0.0 0.00 0.00 0.00 98 1011.1
20260502100545 53 209 0.0 0.0 0.00 0.00 0.00 98 1010.9
20260502091320 53 209 0.0 0.0 0.00 0.00 0.00 97 1011.4
20260502071503 53 209 0.0 0.0 0.00 0.00 0.00 97 1011.4
20260502071227 53 209 0.0 0.0 0.00 0.00 0.00 97 1011.2
20260502070451 53 209 0.0 0.0 0.00 0.00 0.00 96 1011.1
20260502065950 53 209 0.0 0.0 0.00 0.00 0.00 96 1011.0
20260502065440 53 209 0.0 0.0 0.00 0.00 0.00 96 1010.9
20260502064933 53 209 0.0 0.0 0.00 0.00 0.00 96 1011.0
20260502064429 54 209 0.0 0.0 0.00 0.00 0.00 97 1011.0
20260502063921 54 209 0.0 0.0 0.00 0.00 0.00 97 1011.1
20260502063415 53 209 0.0 0.0 0.00 0.00 0.00 96 1011.1
20260502062908 53 209 0.0 0.0 0.00 0.00 0.00 96 1011.1
20260502062635 53 209 0.0 0.0 0.00 0.00 0.00 96 1011.1
20260502061857 53 209 0.0 0.0 0.00 0.00 0.00 96 1011.2
20260502061351 53 209 0.0 0.0 0.00 0.00 0.00 96 1011.2
20260502060846 53 209 0.0 0.0 0.00 0.00 0.00 96 1011.4
20260502060609 53 209 0.0 0.0 0.00 0.00 0.00 96 1011.3
20260502055833 53 209 0.0 0.0 0.00 0.00 0.00 96 1011.2
20260502055327 54 209 0.0 0.0 0.00 0.00 0.00 96 1011.2
20260502054821 54 209 0.0 0.0 0.00 0.00 0.00 96 1011.3
20260502054314 54 209 0.0 0.0 0.00 0.00 0.00 96 1011.3
20260502053809 54 209 0.0 0.0 0.00 0.00 0.00 96 1011.5
20260502053303 54 209 0.0 0.0 0.00 0.00 0.00 96 1011.6
20260502052757 54 209 0.0 0.0 0.00 0.00 0.00 96 1011.6
20260502051745 54 209 0.0 0.0 0.00 0.00 0.00 95 1011.7
20260502051239 54 209 0.0 0.0 0.00 0.00 0.00 95 1011.6
20260502050733 54 209 0.0 0.0 0.00 0.00 0.00 95 1011.6
20260502050227 54 209 0.0 0.0 0.00 0.00 0.00 95 1011.6
20260502045721 54 209 0.0 0.0 0.00 0.00 0.00 95 1011.7
20260502045215 54 209 0.0 0.0 0.00 0.00 0.00 95 1011.8
20260502044709 54 209 0.0 0.0 0.00 0.00 0.00 95 1011.6
20260502044203 54 209 0.0 0.0 0.00 0.00 0.00 95 1011.6
20260502043657 54 209 0.0 0.0 0.00 0.00 0.00 95 1011.5
20260502043151 54 209 0.0 0.0 0.00 0.00 0.00 95 1011.6
20260502042645 54 209 0.0 0.0 0.00 0.00 0.00 95 1011.6
20260502042139 54 209 0.0 0.0 0.00 0.00 0.00 95 1011.8
20260502041633 54 209 0.0 0.0 0.00 0.00 0.00 95 1011.9
20260502041127 54 209 0.0 0.0 0.00 0.00 0.00 94 1012.1
20260502040621 54 209 0.0 0.0 0.00 0.00 0.00 94 1011.9
20260502040116 54 209 0.0 0.0 0.00 0.00 0.00 94 1011.9
20260502035616 54 209 0.0 0.0 0.00 0.00 0.00 94 1011.9
20260502035116 54 209 0.0 0.0 0.00 0.00 0.00 94 1011.9
20260502034847 54 209 0.0 0.0 0.00 0.00 0.00 93 1011.8
20260502034114 55 209 0.0 0.0 0.00 0.00 0.00 93 1011.9
20260502033611 55 209 0.0 0.0 0.00 0.00 0.00 93 1011.8
20260502033341 55 209 0.0 0.0 0.00 0.00 0.00 93 1011.9
20260502032607 55 209 0.0 0.0 0.00 0.00 0.00 92 1011.9
20260502032108 55 209 0.0 0.0 0.00 0.00 0.00 92 1012.1
20260502031838 55 209 0.0 0.0 0.00 0.00 0.00 92 1012.1
20260502031106 55 209 0.0 0.0 0.00 0.00 0.00 92 1012.2
20260502030607 55 209 0.0 0.0 0.00 0.00 0.00 92 1012.3
20260502025604 55 209 0.0 0.0 0.00 0.00 0.00 91 1012.3
20260502025334 56 209 0.0 0.0 0.00 0.00 0.00 91 1012.4
20260502024600 56 209 0.0 0.0 0.00 0.00 0.00 91 1012.3
20260502024330 56 209 0.0 0.0 0.00 0.00 0.00 91 1012.3
20260502023556 56 209 0.0 0.0 0.00 0.00 0.00 90 1012.3
20260502023052 56 209 0.0 0.0 0.00 0.00 0.00 90 1012.2
20260502022552 56 209 0.0 0.0 0.00 0.00 0.00 90 1012.1
20260502022052 56 209 0.0 0.0 0.00 0.00 0.00 89 1012.1
20260502021548 56 209 0.0 0.0 0.00 0.00 0.00 89 1012.3
20260502021046 56 209 0.0 0.0 0.00 0.00 0.00 89 1012.3
20260502020548 56 209 0.0 0.0 0.00 0.00 0.00 89 1012.3
20260502015548 57 209 0.0 0.0 0.00 0.00 0.00 87 1012.2
20260502015046 57 209 0.0 0.0 0.00 0.00 0.00 88 1012.2
20260502014547 57 209 0.0 0.0 0.00 0.00 0.00 87 1012.1
20260502014048 57 209 0.0 0.0 0.00 0.00 0.00 87 1011.9
20260502013548 57 209 0.0 0.0 0.00 0.00 0.00 87 1011.8
20260502013046 58 209 0.0 0.0 0.00 0.00 0.00 86 1011.8
20260502012547 58 209 0.0 0.0 0.00 0.00 0.00 86 1011.7
20260502012048 58 209 0.0 0.0 0.00 0.00 0.00 85 1011.8
20260502011547 58 209 0.0 0.0 0.00 0.00 0.00 85 1011.9
20260502011046 58 209 0.0 0.0 0.00 0.00 0.00 85 1011.9
20260502010047 59 209 0.0 0.0 0.00 0.00 0.00 83 1011.7
20260502005815 59 209 0.0 0.0 0.00 0.00 0.00 83 1011.5
20260502005048 60 209 0.0 0.0 0.00 0.00 0.00 81 1011.4
20260502004813 60 209 0.0 0.0 0.00 0.00 0.00 81 1011.4
20260502004035 60 209 0.0 0.0 0.00 0.00 0.00 80 1011.4
20260502003529 61 209 0.0 0.0 0.00 0.00 0.00 79 1011.4
20260502003024 61 209 0.0 0.0 0.00 0.00 0.00 77 1011.4
20260502002748 61 209 0.0 0.0 0.00 0.00 0.00 77 1011.3
20260502002012 62 209 0.0 0.0 0.00 0.00 0.00 76 1011.1
20260502001506 62 209 0.0 0.0 0.00 0.00 0.00 75 1011.0
20260502001000 62 209 0.0 0.0 0.00 0.00 0.00 73 1011.0
20260502000454 63 209 0.0 0.0 0.00 0.00 0.00 72 1010.9
20260502000219 63 209 0.0 0.0 0.00 0.00 0.00 72 1011.0
20260501235441 64 209 0.0 0.0 0.00 0.00 0.00 71 1010.9
20260501234936 64 209 0.0 0.0 0.00 0.00 0.00 69 1010.7
20260501234429 64 209 0.0 0.0 0.00 0.00 0.00 68 1010.6
20260501233923 65 209 0.0 0.0 0.00 0.00 0.00 66 1010.5
20260501233417 65 209 0.0 0.0 0.00 0.00 0.00 65 1010.5
20260501232911 65 209 0.0 0.0 0.00 0.00 0.00 67 1010.6
20260501232405 65 209 0.0 0.0 0.00 0.00 0.00 67 1010.5
20260501231900 66 209 0.0 0.0 0.00 0.00 0.00 64 1010.3
20260501231353 66 209 0.0 0.0 0.00 0.00 0.00 63 1010.2
20260501230847 66 211 0.0 0.0 0.00 0.00 0.00 61 1010.2
20260501230341 66 211 0.0 0.0 0.00 0.00 0.00 63 1010.1
20260501225836 66 211 0.0 0.0 0.00 0.00 0.00 61 1010.3
20260501225331 66 213 0.0 4.0 0.00 0.00 0.00 59 1010.6
20260501224824 66 193 0.0 4.0 0.00 0.00 0.00 59 1010.6
20260501224318 66 186 0.0 0.0 0.00 0.00 0.00 61 1010.6
20260501223811 66 186 0.0 4.0 0.00 0.00 0.00 58 1010.7
20260501223536 66 184 0.0 4.0 0.00 0.00 0.00 59 1010.7
20260501222759 67 191 1.0 5.0 0.00 0.00 0.00 59 1010.7
20260501222254 67 171 2.0 7.0 0.00 0.00 0.00 58 1010.8
20260501221748 67 185 2.0 8.0 0.00 0.00 0.00 59 1010.7
20260501221241 67 211 1.0 9.0 0.00 0.00 0.00 57 1010.7
20260501220735 67 217 2.0 8.0 0.00 0.00 0.00 56 1010.8
20260501220229 68 210 2.0 7.0 0.00 0.00 0.00 57 1010.8
20260501215723 68 167 2.0 8.0 0.00 0.00 0.00 56 1010.9
20260501215448 67 238 2.0 8.0 0.00 0.00 0.00 56 1010.9
20260501214711 68 231 1.0 4.0 0.00 0.00 0.00 58 1010.8
20260501214437 68 231 1.0 4.0 0.00 0.00 0.00 58 1011.0
20260501213659 68 157 1.0 5.0 0.00 0.00 0.00 56 1010.8
20260501213154 67 157 2.0 6.0 0.00 0.00 0.00 56 1010.7
20260501212142 67 186 1.0 9.0 0.00 0.00 0.00 59 1011.0
20260501211635 67 206 1.0 8.0 0.00 0.00 0.00 58 1011.0
20260501211134 67 244 1.0 5.0 0.00 0.00 0.00 57 1011.2
20260501210127 67 225 3.0 8.0 0.00 0.00 0.00 54 1011.4
20260501205621 67 210 2.0 6.0 0.00 0.00 0.00 55 1011.4
20260501205357 67 204 3.0 8.0 0.00 0.00 0.00 56 1011.3
20260501204622 67 250 2.0 8.0 0.00 0.00 0.00 57 1011.3
20260501204123 68 225 1.0 6.0 0.00 0.00 0.00 54 1011.2
20260501203623 68 159 0.0 4.0 0.00 0.00 0.00 57 1011.3
20260501203121 68 159 0.0 4.0 0.00 0.00 0.00 54 1011.4
20260501202618 67 197 1.0 6.0 0.00 0.00 0.00 55 1011.5
20260501202117 67 252 2.0 6.0 0.00 0.00 0.00 54 1011.6
20260501201616 67 205 1.0 5.0 0.00 0.00 0.00 58 1011.6
20260501201120 67 169 1.0 4.0 0.00 0.00 0.00 55 1011.7
20260501200614 67 159 1.0 5.0 0.00 0.00 0.00 57 1011.9
20260501200114 66 222 1.0 5.0 0.00 0.00 0.00 57 1011.9
20260501195845 66 199 1.0 5.0 0.00 0.00 0.00 54 1012.1
20260501195114 66 247 1.0 3.0 0.00 0.00 0.00 58 1012.1
20260501194615 65 247 2.0 8.0 0.00 0.00 0.00 56 1012.2
20260501194111 66 196 2.0 8.0 0.00 0.00 0.00 54 1012.4
20260501193613 66 160 1.0 5.0 0.00 0.00 0.00 61 1012.3
20260501193106 66 109 2.0 8.0 0.00 0.00 0.00 56 1012.4
20260501192600 66 185 1.0 8.0 0.00 0.00 0.00 54 1012.7
20260501192101 66 151 1.0 4.0 0.00 0.00 0.00 58 1012.6
20260501191558 65 52 2.0 6.0 0.00 0.00 0.00 57 1012.7
20260501191055 65 153 2.0 8.0 0.00 0.00 0.00 56 1012.8
20260501190555 65 227 1.0 8.0 0.00 0.00 0.00 58 1012.8
20260501190055 65 223 1.0 5.0 0.00 0.00 0.00 53 1012.9
20260501185557 65 158 1.0 5.0 0.00 0.00 0.00 55 1013.0
20260501185057 65 159 1.0 5.0 0.00 0.00 0.00 55 1013.0
20260501184554 65 227 1.0 5.0 0.00 0.00 0.00 55 1013.1
20260501184054 65 54 1.0 9.0 0.00 0.00 0.00 56 1013.1
20260501183824 64 182 2.0 9.0 0.00 0.00 0.00 55 1013.2
20260501183053 65 180 1.0 8.0 0.00 0.00 0.00 55 1013.2
20260501182553 65 157 0.0 8.0 0.00 0.00 0.00 54 1013.2
20260501182055 65 208 0.0 5.0 0.00 0.00 0.00 56 1013.3
20260501181820 65 214 0.0 5.0 0.00 0.00 0.00 56 1013.4
20260501181050 64 171 1.0 8.0 0.00 0.00 0.00 58 1013.4
20260501180550 64 193 2.0 8.0 0.00 0.00 0.00 55 1013.5
20260501180050 64 150 1.0 5.0 0.00 0.00 0.00 57 1013.4
20260501175550 64 194 2.0 6.0 0.00 0.00 0.00 54 1013.3
20260501175322 64 222 2.0 7.0 0.00 0.00 0.00 53 1013.3
20260501174551 64 217 2.0 9.0 0.00 0.00 0.00 57 1013.4
20260501174050 64 213 3.0 9.0 0.00 0.00 0.00 53 1013.4
20260501173551 64 236 3.0 7.0 0.00 0.00 0.00 55 1013.5
20260501173047 64 186 1.0 6.0 0.00 0.00 0.00 54 1013.6
20260501172547 64 177 2.0 7.0 0.00 0.00 0.00 54 1013.7
20260501172322 64 97 2.0 7.0 0.00 0.00 0.00 57 1013.7
20260501171818 64 188 1.0 6.0 0.00 0.00 0.00 57 1013.8
20260501171048 64 45 1.0 5.0 0.00 0.00 0.00 55 1014.0